Regional Weather Roundup
Issued by NWS

Home | Current Version | Previous Version | Text Only | Print | Product List | Glossary On
Versions: 1 2 3 4 5 6 7 8 9 10 11 12 13 14 15 16 17 18 19 20 21 22 23 24 25 26 27 28 29 30 31 32 33 34 35 36 37 38 39 40 41 42 43 44 45 46 47 48 49 50
000
ASUS43 KLSX 191607
RWRMO

WEATHER SUMMARY FOR MISSOURI
NATIONAL WEATHER SERVICE SPRINGFIELD MO
1100 AM CDT SUN APR 19 2015

NOTE: "FAIR" INDICATES FEW OR NO CLOUDS BELOW 12,000 FEET WITH NO
       SIGNIFICANT WEATHER AND/OR OBSTRUCTIONS TO VISIBILITY.
       CURRENT SKY AND/OR WEATHER CONDITIONS ARE NOT AVAILABLE FOR
       CHILLICOTHE AND FARMINGTON.

MOZ001>031-035>038-043-044-053-054-191700-
...NORTHERN AND WESTERN MISSOURI...

CITY           SKY/WX    TMP DP  RH WIND       PRES   REMARKS
KANSAS CTY INT PTSUNNY   62  56  80 NW6       29.69F
KANSAS C DTWN  PTSUNNY   63  53  70 W13       29.69S
LEE`S SUMMIT   CLOUDY    62  55  77 W10       29.69F
ST JOSEPH      PTSUNNY   60  55  83 NW10      29.69F
CHILLICOTHE      N/A     68  60  75 VRB3      29.66S
KIRKSVILLE     MOSUNNY   69  59  70 NE9       29.64F

$$
MOZ066>068-077>081-088>096-101>105-191700-
...SOUTHWEST MISSOURI...

CITY           SKY/WX    TMP DP  RH WIND       PRES   REMARKS
SPRINGFIELD    CLOUDY    64  55  72 W7        29.69R
JOPLIN         CLOUDY    61  54  77 W18G25    29.78R

$$
MOZ032>034-039>042-045>050-055>058-069>072-191700-
...CENTRAL MISSOURI...

CITY           SKY/WX    TMP DP  RH WIND       PRES   REMARKS
COLUMBIA       LGT RAIN  60  59  96 W5        29.66F FOG
JEFFERSON CITY LGT RAIN  61  59  93 N6        29.65F FOG
ROLLA          RAIN      61  59  93 W5        29.65S FOG
SEDALIA        CLOUDY    63  59  87 NW6       29.68R
WHITEMAN AFB   CLOUDY    63  58  85 W9        29.67R
WARRENSBURG    CLOUDY    59  55  88 W7        29.69R
OSAGE BEACH    CLOUDY    63  59  88 CALM      29.65F

$$
MOZ051-052-059>065-191700-
...EAST CENTRAL MISSOURI...

CITY           SKY/WX    TMP DP  RH WIND       PRES   REMARKS
ST LOUIS INTL  LGT RAIN  65  58  78 SE3       29.63F
SPIRIT OF STL  LGT RAIN  65  60  84 CALM      29.61F
ST CHARLES     CLOUDY    66  57  72 SE5       29.62F

$$
MOZ072>076-082>087-097>100-106>115-191700-
...SOUTH CENTRAL AND SOUTHEAST MISSOURI...

CITY           SKY/WX    TMP DP  RH WIND       PRES   REMARKS
CAPE GIRARDEAU CLOUDY    68  64  87 SW7       29.58F
FARMINGTON     CLOUDY    64  61  88 N5        29.64S
POPLAR BLUFF   CLOUDY    69  61  75 W7        29.57F
WEST PLAINS    CLOUDY    66  59  78 NW10      29.65F

$$



USA.gov is the U.S. government's official web portal to all federal, state and local government web resources and services.